Houma, LA
on Monday, April 30, 2012

Monday
Previous Day Next Day
Daily Summary
 ActualAverageRecord
Temperature
Mean Temperature - -  
Max Temperature 84 °F 80 °F 90 °F (1943)
Min Temperature 66 °F 64 °F 45 °F (1965)
Cooling Degree Days 10    
Growing Degree Days25 (Base - )  
Moisture
Dew Point 69 °F   
Average Humidity 90    
Maximum Humidity 100    
Minimum Humidity 55    
Precipitation
Precipitation 0.00 in - - ()
Wind
Wind Speed 5 mph   
Max Wind Speed 16 mph   
Max Gust Speed -   
Visibility 7 miles   
Events     
Averages and records for this station are not official NWS values.
Key: T is trace of precipitation, MM is missing value
Source: NWS Daily Summary
Seasonal Weather Averages
Time(CDT)TemperatureDew PointHumidity Pressure Visibility Wind DirectionWind SpeedGust SpeedPrecipitationEvents Conditions
12:15 AM 68.0 °F 68.0 °F 100% 30.08 in 7.0 miles ESE 3.5 mph - N/A   Clear
12:35 AM 68.0 °F 68.0 °F 100% 30.08 in 7.0 miles East 3.5 mph - N/A   Clear
12:55 AM 68.0 °F 68.0 °F 100% 30.08 in 5.0 miles East 3.5 mph - N/A   Clear
1:15 AM 68.0 °F 68.0 °F 100% 30.08 in 4.0 miles Calm Calm - N/A   Clear
1:35 AM 68.0 °F 68.0 °F 100% 30.07 in 1.5 miles Calm Calm - N/A   Mist
1:55 AM 68.0 °F 68.0 °F 100% 30.07 in 4.0 miles East 3.5 mph - N/A   Clear
2:15 AM 68.0 °F 68.0 °F 100% 30.05 in 5.0 miles ESE 4.6 mph - N/A   Scattered Clouds
2:35 AM 68.0 °F 68.0 °F 100% 30.04 in 5.0 miles East 5.8 mph - N/A   Clear
2:55 AM 68.0 °F 68.0 °F 100% 30.04 in 5.0 miles East 5.8 mph - N/A   Clear
3:15 AM 68.0 °F 68.0 °F 100% 30.03 in 5.0 miles ESE 4.6 mph - N/A   Clear
3:35 AM 68.0 °F 68.0 °F 100% 30.03 in 5.0 miles ESE 3.5 mph - N/A   Clear
3:55 AM 68.0 °F 68.0 °F 100% 30.03 in 7.0 miles ESE 5.8 mph - N/A   Clear
4:15 AM 68.0 °F 68.0 °F 100% 30.03 in 7.0 miles ESE 4.6 mph - N/A   Clear
4:35 AM 68.0 °F 68.0 °F 100% 30.03 in 7.0 miles East 3.5 mph - N/A   Clear
4:55 AM 68.0 °F 68.0 °F 100% 30.04 in 7.0 miles East 4.6 mph - N/A   Clear
5:15 AM 68.0 °F 68.0 °F 100% 30.04 in 7.0 miles East 3.5 mph - N/A   Clear
5:35 AM 68.0 °F 68.0 °F 100% 30.04 in 5.0 miles Calm Calm - N/A   Clear
5:48 AM 66.2 °F 66.2 °F 100% 30.06 in 6.0 miles East 4.6 mph - N/A   Clear
5:55 AM 66.2 °F 66.2 °F 100% 30.05 in 0.8 miles Calm Calm - N/A   Mist
6:48 AM 66.2 °F 66.2 °F 100% 30.08 in 6.0 miles North 5.8 mph - N/A   Partly Cloudy
7:50 AM 69.8 °F 69.8 °F 100% 30.09 in 4.0 miles North 3.5 mph - N/A   Clear
8:55 AM 75.2 °F 73.4 °F 94% 30.12 in 7.0 miles ESE 12.7 mph - N/A   Scattered Clouds
9:50 AM 78.8 °F 73.4 °F 83% 30.12 in 7.0 miles ESE 11.5 mph - N/A   Scattered Clouds
10:49 AM 80.6 °F 69.8 °F 70% 30.12 in 7.0 miles SE 12.7 mph - N/A   Scattered Clouds
11:55 AM 82.4 °F 68.0 °F 62% 30.11 in 7.0 miles SE 16.1 mph - N/A   Partly Cloudy
12:55 PM 82.4 °F 69.8 °F 66% 30.10 in 7.0 miles SSE 11.5 mph - N/A   Scattered Clouds
1:50 PM 84.2 °F 68.0 °F 58% 30.10 in 7.0 miles SSE 9.2 mph - N/A   Scattered Clouds
2:50 PM 84.2 °F 66.2 °F 55% 30.09 in 7.0 miles SSE 9.2 mph - N/A   Scattered Clouds
3:50 PM 84.2 °F 68.0 °F 58% 30.05 in 7.0 miles SE 9.2 mph - N/A   Scattered Clouds
4:50 PM 82.4 °F 71.6 °F 70% 30.04 in 7.0 miles SE 9.2 mph - N/A   Scattered Clouds
5:50 PM 80.6 °F 69.8 °F 70% 30.03 in 7.0 miles SE 11.5 mph - N/A   Scattered Clouds
6:50 PM 80.6 °F 69.8 °F 70% 30.03 in 7.0 miles SE 9.2 mph - N/A   Scattered Clouds
7:15 PM 78.8 °F 69.8 °F 74% 30.04 in 7.0 miles ESE 8.1 mph - N/A   Scattered Clouds
7:35 PM 77.0 °F 68.0 °F 74% 30.04 in 7.0 miles ESE 6.9 mph - N/A   Scattered Clouds
7:55 PM 75.2 °F 68.0 °F 78% 30.04 in 7.0 miles ESE 5.8 mph - N/A   Clear
8:15 PM 73.4 °F 68.0 °F 83% 30.04 in 10.0 miles ESE 5.8 mph - N/A   Clear
8:35 PM 73.4 °F 68.0 °F 83% 30.04 in 10.0 miles ESE 4.6 mph - N/A   Clear
8:55 PM 71.6 °F 68.0 °F 88% 30.05 in 10.0 miles East 4.6 mph - N/A   Clear
9:15 PM 71.6 °F 69.8 °F 94% 30.05 in 10.0 miles East 3.5 mph - N/A   Clear
9:35 PM 71.6 °F 69.8 °F 94% 30.06 in 7.0 miles East 5.8 mph - N/A   Clear
9:55 PM 69.8 °F 69.8 °F 100% 30.05 in 10.0 miles ESE 4.6 mph - N/A   Clear
10:15 PM 69.8 °F 69.8 °F 100% 30.05 in 10.0 miles East 3.5 mph - N/A   Clear
10:35 PM 69.8 °F 69.8 °F 100% 30.05 in 10.0 miles SE 3.5 mph - N/A   Clear
10:55 PM 69.8 °F 69.8 °F 100% 30.05 in 10.0 miles ESE 4.6 mph - N/A   Clear
11:15 PM 69.8 °F 69.8 °F 100% 30.04 in 7.0 miles ESE 5.8 mph - N/A   Clear
11:55 PM 69.8 °F 69.8 °F 100% 30.03 in 7.0 miles East 5.8 mph - N/A   Clear

Astronomy

Sunrise: 06:20 AM (CDT)
Moon Rise: 02:02 PM (CDT) on 4 / 30
Sunset: 07:39 PM (CDT)
Moon Set: 02:17 AM (CDT) on 4 / 30
Current Moon Phase
Apr. 30
Upcoming Moon Phases
May. 06 May. 12 May. 20 May. 28

Powered by Weather Underground, Inc.